View from above orbital plane
|
View from above satellite
|
Ground track
|
The orbit data is extracted from the following two-line orbital elements,
1 23753U 95072C 21060.50489229 -.00000051 00000-0 -17918-5 0 9990
2 23753 98.9617 86.7652 0002843 312.6817 47.4123 14.26597398310189
Epoch (UTC): | 01 March 2021 12:07:02 |
Eccentricity: | 0.0002843 |
inclination: | 98.9617° |
perigee height: | 801 km |
apogee height: | 805 km |
right ascension of ascending node: | 86.7652° |
argument of perigee: | 312.6817° |
revolutions per day: | 14.26597398 |
mean anomaly at epoch: | 47.4123° |
orbit number at epoch: | 31018 |
The dashed part of the orbit path shows where the satellite is in the earth's shadow,
|
|